Location: Banksville Park
(38.5557°N, 75.1182°W)
Time: 11:58:10
(UTC+00:00)

Cosmos 1867 - Pass Details

Date: 19 September 2020
Orbit: 777 x 799 km, 65.0° (Epoch: 21 October)

Event Time Altitude Azimuth Distance (km) Brightness Sun altitude
Rises 01:12:29 0° 324° (NW) 3,309 7.7 -25.4°
Reaches altitude 10° 01:14:57 10° 321° (NW) 2,375 6.9 -25.8°
Maximum altitude 01:20:17 56° 244° (WSW) 947 4.0 -26.8°
Enters shadow 01:21:22 47° 203° (SSW) 1,045 4.1 -27.0°
